sat.trackr.live / text

‹ back to catalog

STARLINK-34784

NORAD 65458 · 2025-195A

PAYLOAD ACTIVE UNKNOWN

§ Identity

Operator
Country
US
Launch date
2025-09-03
Launch site
AFETR
Launch vehicle
Mass (kg)
RCS (m²)

Purposes: comms

External: N2YO · Heavens-Above · Gunter

§ Orbital elements

Epoch: 2026-09-19T23:23:59.957664Z

Period
94.01 min
Inclination
53.1580°
Eccentricity
0.0001672
Mean motion
15.31716556 rev/d
Perigee alt
469.5 km
Apogee alt
471.8 km
Semi-major
6,848.8 km
B*
4.2437e-4
RAAN
74.0475°
Arg perigee
72.1350°
Mean anomaly
287.9834°
Rev number
5,976

§ Raw data

STARLINK-347841 65458U 25195A   26262.97499951  .00012833  00000+0  42437-3 0  99902 65458  53.1580  74.0475 0001672  72.1350 287.9834 15.31716556 59761

JSON: /api/v1/satellites/65458 · /tle

For live sub-satellite position, see the globe view (requires WebGL).

§ Visibility from observer

Set your observer location to see the next 7 days of passes ≥ 10°. The values pass through the URL so the page stays shareable.

No JS? Fill the form by hand. The geolocation button needs JavaScript.